[[{"header":{"parameterUnit":"m.s-1","parameterCategory":1,"la1":30.2991,"la2":30.254,"lo1":-89.0895,"lo2":-89.0444,"dy":0.0017,"dx":0.0017,"nx":28,"ny":28,"refTime":"2024-10-20T03:00:00:Z","depth":0,"parameterNumber":2,"parameterNumberName":"U-component_of_WINDS"},"data":[0,0,0,0,0,0,0,0,0,0,0,0,0,0,0,0,0,0,0,0,0,0,0,0,0,0,0,0,0,0,0,0,0,0,0,0,0,0,0,0,0,0,0,0,0,0,0,0,0,0,0,0,0,0,0,0,0,0,-3.5838,-3.5839,0,-3.5882,-3.5883,-3.5883,-3.5815,-3.5813,-3.581,-3.5808,-3.5853,-3.5857,-3.586,0,0,0,0,0,0,0,0,0,0,0,0,0,-3.5696,-3.5699,-3.5838,-3.5839,-3.5839,-3.5882,-3.5883,-3.5883,-3.5816,-3.5813,-3.581,-3.5807,-3.5852,-3.5856,-3.586,0,0,0,0,0,0,0,0,0,0,0,0,0,-3.5751,-3.57,-3.5838,-3.5811,-3.5809,-3.5882,-3.5883,-3.5884,-3.5816,-3.5813,-3.5809,-3.5806,-3.5851,-3.5856,-3.5861,-3.5963,0,0,-3.5877,-3.5879,0,0,0,0,0,0,0,0,-3.5748,-3.5756,-3.5814,-3.5813,-3.5811,-3.584,-3.5849,-3.591,-3.5817,-3.5813,-3.5808,-3.5804,-3.5852,-3.5857,-3.5873,-3.5965,-3.5967,-3.5877,-3.588,-3.5882,-3.5884,0,0,0,0,0,0,0,-3.5744,-3.5754,-3.5856,-3.5815,-3.5813,-3.5796,-3.58,-3.586,-3.5852,-3.5813,-3.5809,-3.5815,-3.585,-3.5868,-3.5873,-3.5968,-3.5877,-3.5881,-3.5885,-3.5887,-3.6149,-3.6152,0,0,0,0,0,0,-3.5744,-3.5751,-3.5854,-3.5857,-3.577,-3.5802,-3.5806,-3.5834,-3.5851,-3.585,-3.5818,-3.5811,-3.5861,-3.5867,-3.5874,-3.5997,-3.5882,-3.5887,-3.589,-3.6145,-3.6149,-3.6154,0,0,0,0,0,0,-3.5741,-3.5754,-3.5853,-3.5803,-3.5814,-3.5808,-3.584,-3.5837,-3.5854,-3.5854,-3.5852,-3.5837,-3.5858,-3.5867,-3.5942,-3.5997,-3.5889,-3.5894,-3.614,-3.6146,-3.6151,-3.6242,0,0,0,0,0,0,-3.5737,-3.5753,-3.5792,-3.5804,-3.5817,-3.592,-3.5843,-3.584,-3.5863,-3.5855,-3.5872,-3.5872,-3.5856,-3.5935,-3.5947,-3.6002,-3.5898,-3.6135,-3.6143,-3.615,-3.6234,-3.625,-3.6264,0,0,0,0,0,-3.5732,-3.5815,-3.5794,-3.5807,-3.5865,-3.5923,-3.593,-3.5911,-3.5868,-3.5907,-3.5907,-3.5871,-3.5989,-3.5943,-3.5956,-3.6014,-3.6132,-3.6141,-3.6149,-3.6227,-3.6247,-3.6263,0,0,0,0,0,0,-3.5809,-3.5816,-3.5793,-3.5882,-3.5903,-3.5911,-3.596,-3.5932,-3.5965,-3.5956,-3.593,-3.5935,-3.6015,-3.6022,-3.597,-3.6115,-3.6053,-3.6065,-3.6108,-3.6126,-3.6141,-3.6139,-3.5902,0,0,0,0,0,-3.5836,-3.5882,-3.5886,-3.5964,-3.5976,-3.5966,-3.5991,-3.5974,-3.5994,-3.6002,-3.6007,-3.6029,-3.607,-3.6098,-3.6137,-3.6234,-3.6237,-3.628,-3.6295,-3.6307,-3.6318,-3.6371,-3.6391,-3.6182,-3.6182,-3.6182,0,0,-3.5893,-3.5903,-3.5933,-3.598,-3.5994,-3.6043,-3.5974,-3.6028,-3.6064,-3.601,-3.6082,-3.6087,-3.6108,-3.6195,-3.6233,-3.6203,-3.6376,-3.6318,-3.6328,-3.6333,-3.6383,-3.6402,-3.642,-3.6188,-3.6187,-3.6186,0,0,-3.6022,-3.6034,-3.6101,-3.6116,-3.6138,-3.6131,-3.6148,-3.6161,-3.6162,-3.6233,-3.6194,-3.6236,-3.6309,-3.6326,-3.6345,-3.6481,-3.645,-3.6494,-3.6573,-3.6625,-3.6641,-3.6656,-3.6706,-3.6724,-3.6505,-3.6505,-3.6505,0,-3.6091,-3.6162,-3.6139,-3.6197,-3.6219,-3.6172,-3.624,-3.6256,-3.629,-3.6306,-3.6271,-3.6361,-3.6372,-3.6464,-3.6497,-3.6513,-3.6531,-3.6493,-3.6641,-3.6655,-3.6668,-3.6716,-3.6735,-3.651,-3.651,-3.6509,-3.6509,0,-3.6246,-3.6296,-3.6348,-3.6382,-3.641,-3.6472,-3.6459,-3.649,-3.647,-3.6468,-3.6541,-3.6553,-3.6594,-3.6613,-3.6595,-3.6703,-3.6683,-3.6645,-3.6583,-3.6694,-3.6739,-3.6757,-3.6518,-3.6516,-3.6514,-3.6513,0,0,-3.6426,-3.6446,-3.6466,-3.6481,-3.6502,-3.654,-3.6601,-3.6641,-3.6668,-3.6693,-3.6744,-3.6806,-3.6771,-3.6792,-3.6775,-3.6821,-3.693,-3.6777,-3.6777,-3.6807,-3.7051,-3.7081,-3.7103,-3.6909,-3.6912,-3.6915,-3.705,0,-3.6556,-3.6661,-3.6642,-3.6744,-3.6791,-3.6748,-3.68,-3.6819,-3.6818,-3.6858,-3.6856,-3.6902,-3.6851,-3.6864,-3.6907,-3.6908,-3.6979,-3.6897,-3.6957,-3.696,-3.6955,-3.7126,-3.7157,-3.7285,-3.7067,-3.707,-3.7072,0,-3.6722,-3.6753,-3.6861,-3.6875,-3.6894,-3.6942,-3.6977,-3.7015,-3.7036,-3.7032,-3.7056,-3.703,-3.7091,-3.7028,-3.7112,-3.7057,-3.708,-3.7084,-3.7089,-3.7095,-3.7024,-3.7139,-3.7324,-3.7344,-3.7099,-3.7097,-3.7095,0,-3.6844,-3.6913,-3.6987,-3.7001,-3.7019,-3.7054,-3.7063,-3.708,-3.7105,-3.7136,-3.7153,-3.719,-3.7211,-3.7241,-3.7227,-3.7181,-3.7315,-3.7249,-3.7314,-3.7315,-3.7346,-3.7344,-3.754,-3.7358,-3.7357,-3.7357,-3.7357,0,-3.6993,-3.7061,-3.7042,-3.7088,-3.7163,-3.714,-3.7215,-3.7219,-3.7234,-3.728,-3.7244,-3.7288,-3.7265,-3.7307,-3.7296,-3.7369,-3.7378,-3.7378,-3.7374,-3.7382,-3.7383,-3.7398,-3.739,-3.7362,-3.7361,-3.736,-3.7359,0,-3.7143,-3.7133,-3.7211,-3.7222,-3.7226,-3.7281,-3.729,-3.7333,-3.7329,-3.7387,-3.74,-3.7394,-3.7442,-3.743,-3.7482,-3.7475,-3.7567,-3.7552,-3.7561,-3.7558,-3.7624,-3.7619,-3.7838,-3.7867,-3.7664,-3.7666,-3.7668,0,-3.7239,-3.7291,-3.7307,-3.7336,-3.7348,-3.7393,-3.7419,-3.7399,-3.7427,-3.7455,-3.7495,-3.7539,-3.7574,-3.7653,-3.7654,-3.7694,-3.768,-3.7754,-3.7686,-3.7693,-3.7684,-3.7682,-3.7688,-3.7769,-3.7771,-3.7773,-3.7774,0,-3.7412,-3.7405,-3.7444,-3.7482,-3.7514,-3.7542,-3.7567,-3.7592,-3.7574,-3.7608,-3.7657,-3.7684,-3.7737,-3.7783,-3.782,-3.7829,-3.78,-3.7796,-3.7813,-3.7823,-3.7827,-3.7827,-3.76,-3.7791,-3.7789,-3.7788,-3.7787,-3.7787,-3.754,-3.7584,-3.7603,-3.7648,-3.7664,-3.7689,-3.773,-3.7731,-3.7772,-3.7814,-3.7799,-3.7855,-3.7875,-3.7922,-3.7936,-3.798,-3.7952,-3.7977,-3.7984,-3.7991,-3.8,-3.7818,-3.7986,-3.7986,-3.7985,-3.7985,-3.7985,0,-3.7712,-3.7722,-3.7763,-3.78,-3.7836,-3.7804,-3.783,-3.7862,-3.7912,-3.7933,-3.7968,-3.8025,-3.8069,-3.8073,-3.8115,-3.8149,-3.8137,-3.8161,-3.8159,-3.8163,-3.8022,-3.8003,-3.8171,-3.8171,-3.8171,-3.8171,-3.8171,-3.8171,-3.7806,-3.788,-3.7875,-3.7957,-3.7966,-3.8021,-3.8039,-3.8062,-3.8078,-3.8144,-3.818,-3.8182,-3.8197,-3.8239,-3.8279,-3.8279,-3.8296,-3.8327,-3.8322,-3.8191,-3.8172,-3.8155,-3.8137,-3.833,-3.833,-3.8459,-3.846,-3.8461]},{"header":{"parameterUnit":"m.s-1","parameterCategory":1,"la1":30.2991,"la2":30.254,"lo1":-89.0895,"lo2":-89.0444,"dy":0.0017,"dx":0.0017,"nx":28,"ny":28,"refTime":"2024-10-20T03:00:00:Z","depth":0,"parameterNumber":3,"parameterNumberName":"V-component_of_WINDS"},"data":[0,0,0,0,0,0,0,0,0,0,0,0,0,0,0,0,0,0,0,0,0,0,0,0,0,0,0,0,0,0,0,0,0,0,0,0,0,0,0,0,0,0,0,0,0,0,0,0,0,0,0,0,0,0,0,0,0,0,-2.5891,-2.5891,0,-2.5878,-2.5878,-2.5877,-2.5829,-2.5828,-2.5827,-2.5826,-2.5813,-2.5813,-2.5814,0,0,0,0,0,0,0,0,0,0,0,0,0,-2.5875,-2.5875,-2.5891,-2.5891,-2.5891,-2.5878,-2.5878,-2.5877,-2.5829,-2.5828,-2.5827,-2.5825,-2.5812,-2.5813,-2.5814,0,0,0,0,0,0,0,0,0,0,0,0,0,-2.5874,-2.5876,-2.5891,-2.5865,-2.5863,-2.5878,-2.5878,-2.5877,-2.583,-2.5828,-2.5826,-2.5825,-2.5812,-2.5813,-2.5814,-2.5853,0,0,-2.5817,-2.5818,0,0,0,0,0,0,0,0,-2.5874,-2.5874,-2.5869,-2.5867,-2.5864,-2.5853,-2.5867,-2.5869,-2.583,-2.5842,-2.5826,-2.5824,-2.5828,-2.5827,-2.5828,-2.5853,-2.5852,-2.5817,-2.5818,-2.5818,-2.5819,0,0,0,0,0,0,0,-2.5874,-2.5875,-2.5886,-2.5869,-2.5866,-2.5854,-2.5852,-2.5867,-2.5844,-2.5841,-2.5838,-2.5837,-2.5826,-2.5828,-2.5828,-2.5852,-2.5817,-2.5818,-2.5819,-2.5819,-2.5907,-2.5908,0,0,0,0,0,0,-2.5878,-2.5875,-2.5886,-2.5885,-2.5865,-2.5856,-2.5854,-2.5859,-2.5844,-2.584,-2.5838,-2.5834,-2.5827,-2.5827,-2.5827,-2.5871,-2.5818,-2.5819,-2.582,-2.5905,-2.5907,-2.5909,0,0,0,0,0,0,-2.5878,-2.5879,-2.5887,-2.5879,-2.5879,-2.5858,-2.5864,-2.5859,-2.5861,-2.5842,-2.5837,-2.5844,-2.5825,-2.5826,-2.5847,-2.587,-2.582,-2.5821,-2.5903,-2.5905,-2.5908,-2.5961,0,0,0,0,0,0,-2.5877,-2.5879,-2.5894,-2.588,-2.588,-2.5907,-2.5865,-2.586,-2.5863,-2.5858,-2.5846,-2.5843,-2.5824,-2.5846,-2.5848,-2.5871,-2.5821,-2.5901,-2.5904,-2.5907,-2.5957,-2.5965,-2.5972,0,0,0,0,0,-2.5877,-2.591,-2.5895,-2.5897,-2.5898,-2.5909,-2.5909,-2.5887,-2.5865,-2.5879,-2.5867,-2.5843,-2.5867,-2.5848,-2.585,-2.5874,-2.5899,-2.5903,-2.5907,-2.5953,-2.5963,-2.5971,0,0,0,0,0,0,-2.5928,-2.5908,-2.5891,-2.5921,-2.5917,-2.59,-2.5918,-2.5898,-2.59,-2.5895,-2.5868,-2.5866,-2.5891,-2.5884,-2.5864,-2.591,-2.5879,-2.5884,-2.5914,-2.5923,-2.593,-2.5931,-2.5822,0,0,0,0,0,-2.5943,-2.5953,-2.5935,-2.5962,-2.5961,-2.594,-2.5944,-2.5927,-2.5922,-2.592,-2.5909,-2.5906,-2.5912,-2.5917,-2.5922,-2.5955,-2.5952,-2.5972,-2.598,-2.5986,-2.599,-2.6007,-2.6016,-2.5921,-2.5921,-2.5921,0,0,-2.5973,-2.5963,-2.5972,-2.5972,-2.5967,-2.5979,-2.5939,-2.5953,-2.5961,-2.5922,-2.5942,-2.5934,-2.5927,-2.5954,-2.5966,-2.595,-2.6015,-2.5991,-2.5996,-2.5997,-2.6012,-2.6021,-2.6028,-2.5924,-2.5924,-2.5923,0,0,-2.6035,-2.6028,-2.605,-2.6046,-2.6039,-2.6024,-2.6029,-2.6016,-2.6009,-2.6028,-2.5999,-2.6008,-2.602,-2.6017,-2.6016,-2.6075,-2.6053,-2.6077,-2.6116,-2.6133,-2.614,-2.6146,-2.6167,-2.6175,-2.6082,-2.6082,-2.6082,0,-2.6074,-2.6089,-2.6065,-2.608,-2.6081,-2.6046,-2.6068,-2.6065,-2.6059,-2.6061,-2.6043,-2.6056,-2.605,-2.6075,-2.609,-2.6091,-2.6096,-2.6079,-2.6141,-2.6147,-2.6153,-2.6172,-2.618,-2.6085,-2.6085,-2.6084,-2.6084,0,-2.6137,-2.6149,-2.6167,-2.6163,-2.6165,-2.6184,-2.6162,-2.6168,-2.615,-2.6138,-2.6157,-2.6148,-2.615,-2.6155,-2.6138,-2.6178,-2.6168,-2.6146,-2.6114,-2.6165,-2.6183,-2.619,-2.6089,-2.6088,-2.6087,-2.6086,0,0,-2.6232,-2.6212,-2.6219,-2.6216,-2.6205,-2.6213,-2.623,-2.6232,-2.6237,-2.6234,-2.6247,-2.6258,-2.6237,-2.6237,-2.622,-2.6234,-2.6281,-2.621,-2.6209,-2.6223,-2.6323,-2.634,-2.6349,-2.6266,-2.6267,-2.6268,-2.6323,0,-2.629,-2.6317,-2.6295,-2.6326,-2.6336,-2.6302,-2.6316,-2.6311,-2.6299,-2.6306,-2.6293,-2.6301,-2.6273,-2.6272,-2.6285,-2.6272,-2.63,-2.6268,-2.6278,-2.6278,-2.628,-2.6358,-2.6376,-2.6429,-2.633,-2.6331,-2.6332,0,-2.6361,-2.6361,-2.6394,-2.6379,-2.6382,-2.6396,-2.6395,-2.6402,-2.6395,-2.6385,-2.6384,-2.6363,-2.6378,-2.6346,-2.6366,-2.6345,-2.6347,-2.6341,-2.6343,-2.6343,-2.6309,-2.636,-2.6445,-2.6453,-2.6343,-2.6342,-2.6341,0,-2.6427,-2.6435,-2.6454,-2.6453,-2.6437,-2.6447,-2.6441,-2.6432,-2.6434,-2.6433,-2.6435,-2.6436,-2.6437,-2.6438,-2.6417,-2.6396,-2.644,-2.6407,-2.6432,-2.6433,-2.6443,-2.6443,-2.653,-2.6445,-2.6445,-2.6445,-2.6445,0,-2.6494,-2.6515,-2.6483,-2.6496,-2.6518,-2.6492,-2.6515,-2.6505,-2.6497,-2.6507,-2.6478,-2.6488,-2.6459,-2.6466,-2.645,-2.6469,-2.6469,-2.6462,-2.6458,-2.6465,-2.6466,-2.6466,-2.6462,-2.6447,-2.6446,-2.6446,-2.6446,0,-2.6571,-2.6551,-2.657,-2.6553,-2.6549,-2.6566,-2.6551,-2.6562,-2.6548,-2.6561,-2.6562,-2.654,-2.6547,-2.6526,-2.6529,-2.6518,-2.6546,-2.6535,-2.6548,-2.6545,-2.6572,-2.6569,-2.6662,-2.6672,-2.6581,-2.6582,-2.6583,0,-2.6615,-2.663,-2.6614,-2.6619,-2.6614,-2.6621,-2.6623,-2.6597,-2.66,-2.6593,-2.6604,-2.6608,-2.661,-2.6621,-2.6606,-2.6608,-2.6597,-2.6629,-2.6597,-2.6604,-2.6597,-2.6597,-2.6598,-2.6636,-2.6637,-2.6638,-2.6639,0,-2.6696,-2.6685,-2.6688,-2.6688,-2.6691,-2.669,-2.6687,-2.6692,-2.6664,-2.6669,-2.6675,-2.6676,-2.6679,-2.6683,-2.6682,-2.6675,-2.6653,-2.6649,-2.6655,-2.6663,-2.667,-2.6666,-2.6566,-2.6647,-2.6646,-2.6646,-2.6645,-2.6645,-2.6758,-2.6769,-2.676,-2.6764,-2.6759,-2.6757,-2.6765,-2.6752,-2.6756,-2.6756,-2.6741,-2.675,-2.6741,-2.6737,-2.6733,-2.6739,-2.6724,-2.6733,-2.6735,-2.6738,-2.6742,-2.6668,-2.6739,-2.6738,-2.6738,-2.6738,-2.6738,0,-2.6837,-2.6829,-2.6833,-2.6829,-2.6833,-2.6811,-2.6806,-2.681,-2.6818,-2.6812,-2.6814,-2.682,-2.6824,-2.6808,-2.681,-2.6818,-2.6808,-2.6819,-2.6818,-2.6817,-2.6756,-2.675,-2.6827,-2.6827,-2.6827,-2.6827,-2.6827,-2.6827,-2.6879,-2.6897,-2.6884,-2.69,-2.6891,-2.6899,-2.6898,-2.6896,-2.689,-2.6899,-2.6901,-2.6891,-2.6881,-2.6881,-2.6883,-2.6878,-2.688,-2.6895,-2.6887,-2.683,-2.6821,-2.6813,-2.6808,-2.6896,-2.6896,-2.6948,-2.6948,-2.6949]}]]